| time (UTC) | temp C | wind direction | speed KPH | gust KPH | rain 1hr cm | rain 24hr cm | rain mn cm | humidity % | barometer mb |
| 20260504150517 | 23 | 293 | 4.8 | 16.1 | 0.00 | 0.00 | 0.00 | 71 | 1015.7 |
| 20260504140537 | 21 | 315 | 3.2 | 8.0 | 0.00 | 0.00 | 0.00 | 74 | 1015.9 |
| 20260504130517 | 17 | 293 | 1.6 | 4.8 | 0.00 | 0.00 | 0.00 | 83 | 1016.2 |
| 20260504110516 | 13 | 0.0 | 0.0 | 0.00 | 0.00 | 0.00 | 89 | 1015.6 | |
| 20260504100516 | 15 | 0.0 | 0.0 | 0.00 | 0.00 | 0.00 | 85 | 1015.9 | |
| 20260504081516 | 16 | 0.0 | 4.8 | 0.00 | 0.00 | 0.00 | 80 | 1016.3 | |
| 20260504080536 | 17 | 0.0 | 6.4 | 0.00 | 0.00 | 0.00 | 80 | 1016.5 | |
| 20260504050516 | 18 | 293 | 1.6 | 8.0 | 0.00 | 0.00 | 0.00 | 73 | 1018.3 |
| 20260504045516 | 18 | 293 | 1.6 | 6.4 | 0.00 | 0.00 | 0.00 | 72 | 1018.3 |
| 20260504044516 | 18 | 293 | 3.2 | 9.7 | 0.00 | 0.00 | 0.00 | 72 | 1018.5 |
| 20260504043516 | 18 | 293 | 3.2 | 6.4 | 0.00 | 0.00 | 0.00 | 72 | 1018.6 |
| 20260504042516 | 18 | 315 | 1.6 | 6.4 | 0.00 | 0.00 | 0.00 | 72 | 1018.6 |
| 20260504041516 | 19 | 315 | 3.2 | 9.7 | 0.00 | 0.00 | 0.00 | 71 | 1018.5 |
| 20260504040536 | 19 | 293 | 3.2 | 6.4 | 0.00 | 0.00 | 0.00 | 71 | 1018.5 |
| 20260504035516 | 19 | 293 | 1.6 | 8.0 | 0.00 | 0.00 | 0.00 | 71 | 1018.8 |
| 20260504034516 | 19 | 293 | 3.2 | 8.0 | 0.00 | 0.00 | 0.00 | 71 | 1018.6 |
| 20260504033517 | 19 | 293 | 3.2 | 8.0 | 0.00 | 0.00 | 0.00 | 70 | 1018.5 |
| 20260504032516 | 20 | 315 | 3.2 | 9.7 | 0.00 | 0.00 | 0.00 | 69 | 1018.6 |
| 20260504031516 | 20 | 315 | 1.6 | 8.0 | 0.00 | 0.00 | 0.00 | 68 | 1018.6 |
| 20260504030536 | 20 | 315 | 1.6 | 6.4 | 0.00 | 0.00 | 0.00 | 67 | 1018.1 |
| 20260504025516 | 20 | 293 | 1.6 | 3.2 | 0.00 | 0.00 | 0.00 | 64 | 1018.0 |
| 20260504024536 | 20 | 293 | 1.6 | 6.4 | 0.00 | 0.00 | 0.00 | 62 | 1018.1 |
| 20260504023516 | 21 | 315 | 3.2 | 8.0 | 0.00 | 0.00 | 0.00 | 58 | 1018.2 |
| 20260504022516 | 21 | 315 | 3.2 | 6.4 | 0.00 | 0.00 | 0.00 | 56 | 1018.0 |
| 20260504021516 | 21 | 315 | 1.6 | 6.4 | 0.00 | 0.00 | 0.00 | 54 | 1017.7 |
| 20260504020516 | 21 | 315 | 1.6 | 3.2 | 0.00 | 0.00 | 0.00 | 54 | 1017.5 |
| 20260504015516 | 21 | 0.0 | 1.6 | 0.00 | 0.00 | 0.00 | 54 | 1017.3 | |
| 20260504014516 | 21 | 0.0 | 3.2 | 0.00 | 0.00 | 0.00 | 54 | 1017.3 | |
| 20260504013516 | 21 | 315 | 1.6 | 4.8 | 0.00 | 0.00 | 0.00 | 55 | 1017.2 |
| 20260504012536 | 22 | 0.0 | 1.6 | 0.00 | 0.00 | 0.00 | 55 | 1017.2 | |
| 20260504011516 | 22 | 0.0 | 1.6 | 0.00 | 0.00 | 0.00 | 53 | 1017.2 | |
| 20260504010516 | 22 | 0.0 | 4.8 | 0.00 | 0.00 | 0.00 | 51 | 1017.1 | |
| 20260504005516 | 23 | 315 | 1.6 | 4.8 | 0.00 | 0.00 | 0.00 | 50 | 1017.1 |
| 20260504004516 | 23 | 315 | 1.6 | 6.4 | 0.00 | 0.00 | 0.00 | 49 | 1017.3 |
| 20260504003516 | 24 | 293 | 1.6 | 4.8 | 0.00 | 0.00 | 0.00 | 47 | 1017.2 |
| 20260504002516 | 24 | 315 | 1.6 | 6.4 | 0.00 | 0.00 | 0.00 | 46 | 1017.4 |
| 20260504001516 | 25 | 315 | 1.6 | 6.4 | 0.00 | 0.00 | 0.00 | 45 | 1017.4 |
| 20260504000516 | 25 | 315 | 3.2 | 9.7 | 0.00 | 0.00 | 0.00 | 45 | 1017.5 |
| 20260503235516 | 25 | 293 | 1.6 | 4.8 | 0.00 | 0.00 | 0.00 | 45 | 1017.6 |
| 20260503234515 | 25 | 315 | 1.6 | 8.0 | 0.00 | 0.00 | 0.00 | 42 | 1017.7 |
| 20260503233516 | 25 | 293 | 3.2 | 8.0 | 0.00 | 0.00 | 0.00 | 42 | 1017.7 |
| 20260503232516 | 25 | 315 | 3.2 | 9.7 | 0.00 | 0.00 | 0.00 | 42 | 1017.7 |
| 20260503231516 | 26 | 315 | 3.2 | 11.3 | 0.00 | 0.00 | 0.00 | 41 | 1017.5 |
| 20260503230516 | 26 | 293 | 3.2 | 8.0 | 0.00 | 0.00 | 0.00 | 41 | 1017.6 |
| 20260503225516 | 26 | 315 | 4.8 | 11.3 | 0.00 | 0.00 | 0.00 | 40 | 1017.8 |
| 20260503224516 | 26 | 293 | 4.8 | 14.5 | 0.00 | 0.00 | 0.00 | 41 | 1018.1 |
| 20260503223536 | 27 | 315 | 1.6 | 8.0 | 0.00 | 0.00 | 0.00 | 43 | 1018.1 |
| 20260503222536 | 27 | 293 | 4.8 | 12.9 | 0.00 | 0.00 | 0.00 | 39 | 1018.3 |
| 20260503221515 | 27 | 293 | 4.8 | 8.0 | 0.00 | 0.00 | 0.00 | 40 | 1018.4 |
| 20260503220516 | 27 | 293 | 3.2 | 8.0 | 0.00 | 0.00 | 0.00 | 39 | 1018.6 |
| 20260503215515 | 27 | 293 | 4.8 | 12.9 | 0.00 | 0.00 | 0.00 | 40 | 1018.7 |
| 20260503214516 | 27 | 293 | 3.2 | 11.3 | 0.00 | 0.00 | 0.00 | 37 | 1018.8 |
| 20260503213515 | 27 | 293 | 1.6 | 14.5 | 0.00 | 0.00 | 0.00 | 41 | 1019.0 |
| 20260503212518 | 27 | 293 | 3.2 | 8.0 | 0.00 | 0.00 | 0.00 | 39 | 1019.4 |
| 20260503211518 | 27 | 293 | 3.2 | 9.7 | 0.00 | 0.00 | 0.00 | 37 | 1019.5 |
| 20260503210518 | 27 | 293 | 3.2 | 8.0 | 0.00 | 0.00 | 0.00 | 39 | 1019.8 |
| 20260503205518 | 27 | 293 | 1.6 | 6.4 | 0.00 | 0.00 | 0.00 | 40 | 1019.7 |
| 20260503204538 | 27 | 315 | 3.2 | 8.0 | 0.00 | 0.00 | 0.00 | 41 | 1020.0 |
| 20260503203518 | 27 | 315 | 4.8 | 14.5 | 0.00 | 0.00 | 0.00 | 39 | 1020.1 |
| 20260503202518 | 27 | 68 | 3.2 | 9.7 | 0.00 | 0.00 | 0.00 | 39 | 1020.3 |
| 20260503201518 | 27 | 90 | 4.8 | 17.7 | 0.00 | 0.00 | 0.00 | 38 | 1020.3 |
| 20260503200518 | 27 | 293 | 3.2 | 6.4 | 0.00 | 0.00 | 0.00 | 41 | 1020.5 |
| 20260503195517 | 27 | 315 | 1.6 | 6.4 | 0.00 | 0.00 | 0.00 | 39 | 1020.5 |
| 20260503194538 | 27 | 293 | 3.2 | 9.7 | 0.00 | 0.00 | 0.00 | 41 | 1020.7 |
| 20260503193518 | 27 | 90 | 1.6 | 4.8 | 0.00 | 0.00 | 0.00 | 40 | 1020.9 |
| 20260503192518 | 27 | 293 | 3.2 | 11.3 | 0.00 | 0.00 | 0.00 | 43 | 1021.2 |
| 20260503191537 | 27 | 338 | 3.2 | 11.3 | 0.00 | 0.00 | 0.00 | 47 | 1021.2 |
| 20260503190517 | 27 | 315 | 4.8 | 9.7 | 0.00 | 0.00 | 0.00 | 39 | 1021.4 |
| 20260503185517 | 26 | 315 | 1.6 | 6.4 | 0.00 | 0.00 | 0.00 | 43 | 1021.4 |
| 20260503184517 | 26 | 293 | 4.8 | 17.7 | 0.00 | 0.00 | 0.00 | 42 | 1021.7 |
| 20260503183518 | 26 | 293 | 1.6 | 8.0 | 0.00 | 0.00 | 0.00 | 40 | 1021.9 |
| 20260503182538 | 26 | 293 | 3.2 | 14.5 | 0.00 | 0.00 | 0.00 | 43 | 1022.0 |
| 20260503181517 | 26 | 293 | 3.2 | 9.7 | 0.00 | 0.00 | 0.00 | 41 | 1022.4 |
| 20260503180517 | 26 | 293 | 3.2 | 14.5 | 0.00 | 0.00 | 0.00 | 42 | 1022.5 |
| 20260503175537 | 26 | 90 | 3.2 | 11.3 | 0.00 | 0.00 | 0.00 | 42 | 1022.5 |
| 20260503174517 | 26 | 315 | 3.2 | 8.0 | 0.00 | 0.00 | 0.00 | 42 | 1022.6 |
| 20260503173517 | 26 | 293 | 3.2 | 11.3 | 0.00 | 0.00 | 0.00 | 43 | 1022.8 |
| 20260503172517 | 26 | 293 | 1.6 | 8.0 | 0.00 | 0.00 | 0.00 | 50 | 1022.9 |
| 20260503171517 | 25 | 293 | 4.8 | 11.3 | 0.00 | 0.00 | 0.00 | 46 | 1023.1 |
| 20260503170558 | 25 | 293 | 1.6 | 6.4 | 0.00 | 0.00 | 0.00 | 45 | 1023.2 |